Location: Martz Observatory
(42.0083°N, 79.0667°W)
Time: 14:10:46
(UTC-04:00)

CZ-4C R/B - Pass Details

Date: 26 May 2018
Orbit: 680 x 1322 km, 63.4° (Epoch: 14 October)

Event Time Altitude Azimuth Distance (km) Brightness Sun altitude
Rises 00:37:45 0° 316° (NW) 3,940 6.5 -26.3°
Reaches altitude 10° 00:40:35 10° 308° (NW) 3,066 5.6 -26.4°
Maximum altitude 00:47:06 34° 247° (WSW) 1,942 3.9 -26.6°
Enters shadow 00:48:20 32° 230° (SW) 2,015 3.8 -26.6°
